�������l�o���
Date,Time,MP-1(��Sv/h),MP-2(��Sv/h),MP-3(��Sv/h),MP-4(��Sv/h),MP-5(��Sv/h),MP-6(��Sv/h),MP-7(��Sv/h),MP-8(��Sv/h),����,����(m/s),���J
2022/06/20,00:00,0.576,0.840,0.531,0.999,0.711,0.341,0.592,0.558,��,3.9,��
2022/06/20,00:10,0.576,0.841,0.531,1.003,0.711,0.342,0.592,0.559,��,3.1,��
2022/06/20,00:20,0.577,0.843,0.531,1.000,0.709,0.344,0.592,0.559,��,3.0,��
2022/06/20,00:30,0.576,0.841,0.531,1.002,0.708,0.344,0.590,0.559,��,4.2,��
2022/06/20,00:40,0.577,0.841,0.535,1.000,0.709,0.342,0.591,0.558,��쐼,2.8,��
2022/06/20,00:50,0.578,0.843,0.531,1.000,0.710,0.341,0.591,0.559,���쐼,4.5,��
2022/06/20,01:00,0.576,0.843,0.533,1.001,0.711,0.344,0.592,0.558,�쐼,4.4,��
2022/06/20,01:10,0.576,0.838,0.532,1.000,0.712,0.342,0.592,0.557,�쐼,2.3,��
2022/06/20,01:20,0.576,0.841,0.532,1.002,0.709,0.344,0.592,0.558,�쐼,2.9,��
2022/06/20,01:30,0.576,0.842,0.532,1.002,0.710,0.342,0.591,0.559,��,2.3,��
2022/06/20,01:40,0.576,0.839,0.530,1.001,0.709,0.341,0.590,0.559,��,1.2,��
2022/06/20,01:50,0.577,0.842,0.531,1.002,0.710,0.343,0.593,0.558,��쐼,0.9,��
2022/06/20,02:00,0.579,0.839,0.532,1.001,0.709,0.342,0.592,0.558,��,1.9,��
2022/06/20,02:10,0.576,0.840,0.531,1.001,0.709,0.343,0.592,0.558,���쐼,3.0,��
2022/06/20,02:20,0.575,0.840,0.530,1.001,0.710,0.344,0.592,0.558,���쐼,1.7,��
2022/06/20,02:30,0.577,0.842,0.532,1.001,0.710,0.343,0.592,0.559,�쐼,1.5,��
2022/06/20,02:40,0.578,0.839,0.532,1.001,0.708,0.344,0.592,0.558,�쓌,0.9,��
2022/06/20,02:50,0.578,0.841,0.531,1.002,0.710,0.343,0.593,0.558,��,0.9,��
2022/06/20,03:00,0.579,0.841,0.532,1.002,0.710,0.342,0.592,0.558,��,0.9,��
2022/06/20,03:10,0.578,0.842,0.532,1.001,0.710,0.342,0.592,0.558,��,1.2,��
2022/06/20,03:20,0.578,0.840,0.530,1.002,0.710,0.342,0.592,0.558,��,1.5,��
2022/06/20,03:30,0.576,0.839,0.532,1.001,0.710,0.344,0.594,0.558,��쐼,1.1,��
2022/06/20,03:40,0.577,0.841,0.531,1.002,0.710,0.342,0.593,0.560,��쐼,2.0,��
2022/06/20,03:50,0.576,0.841,0.532,1.002,0.710,0.343,0.594,0.559,��쐼,1.9,��
2022/06/20,04:00,0.576,0.842,0.531,1.001,0.712,0.343,0.593,0.560,�쐼,0.6,��
2022/06/20,04:10,0.578,0.840,0.530,1.001,0.710,0.342,0.593,0.557,���쓌,0.9,��
2022/06/20,04:20,0.577,0.841,0.531,1.002,0.710,0.343,0.593,0.557,�쓌,1.7,��
2022/06/20,04:30,0.577,0.842,0.531,1.002,0.711,0.342,0.592,0.557,�쓌,1.4,��
2022/06/20,04:40,0.576,0.841,0.532,1.003,0.712,0.342,0.592,0.559,�쓌,1.7,��
2022/06/20,04:50,0.577,0.840,0.531,1.000,0.712,0.342,0.594,0.559,�쓌,1.7,��
2022/06/20,05:00,0.576,0.841,0.530,1.001,0.709,0.342,0.594,0.559,��쓌,2.5,��
2022/06/20,05:10,0.578,0.841,0.531,1.001,0.712,0.343,0.593,0.560,��,1.5,��
2022/06/20,05:20,0.578,0.842,0.532,1.001,0.710,0.343,0.593,0.558,��,1.2,��
2022/06/20,05:30,0.579,0.840,0.531,1.002,0.711,0.342,0.593,0.558,��,2.3,��
2022/06/20,05:40,0.577,0.840,0.532,1.003,0.711,0.342,0.595,0.558,��,3.6,��
2022/06/20,05:50,0.575,0.841,0.531,1.004,0.711,0.343,0.594,0.558,��쐼,2.8,��
2022/06/20,06:00,0.576,0.841,0.531,1.005,0.716,0.344,0.594,0.560,���k��,0.9,��
2022/06/20,06:10,0.579,0.840,0.530,1.003,0.711,0.343,0.595,0.558,���쐼,0.8,��
2022/06/20,06:20,0.576,0.840,0.529,1.003,0.710,0.343,0.594,0.558,�k��,1.1,��
2022/06/20,06:30,0.578,0.842,0.530,1.003,0.710,0.344,0.593,0.559,���k��,1.1,��
2022/06/20,06:40,0.576,0.841,0.532,1.002,0.711,0.343,0.593,0.559,�k��,0.6,��
2022/06/20,06:50,0.577,0.840,0.531,1.001,0.711,0.342,0.595,0.560,��,0.6,��
2022/06/20,07:00,0.577,0.839,0.532,1.002,0.710,0.343,0.595,0.559,���k��,0.6,��
2022/06/20,07:10,0.578,0.841,0.531,1.004,0.710,0.342,0.594,0.559,�쓌,2.0,��
2022/06/20,07:20,0.577,0.840,0.531,1.001,0.711,0.342,0.593,0.557,�쓌,1.5,��
2022/06/20,07:30,0.576,0.838,0.531,1.002,0.711,0.342,0.595,0.557,-,CALM,��
2022/06/20,07:40,0.577,0.840,0.533,1.001,0.711,0.343,0.592,0.559,�쓌,0.8,��
2022/06/20,07:50,0.576,0.840,0.533,1.003,0.710,0.344,0.593,0.558,��,3.0,��
2022/06/20,08:00,0.577,0.842,0.531,1.003,0.714,0.345,0.591,0.557,��,4.2,��
2022/06/20,08:10,0.577,0.840,0.533,1.004,0.712,0.343,0.594,0.556,���k��,3.4,��
2022/06/20,08:20,0.576,0.841,0.533,1.006,0.713,0.344,0.593,0.556,�k�k��,0.8,��
2022/06/20,08:30,0.577,0.840,0.531,1.004,0.711,0.343,0.593,0.557,�쓌,0.6,��
2022/06/20,08:40,0.578,0.843,0.535,1.006,0.711,0.344,0.592,0.558,��,3.1,��
2022/06/20,08:50,0.577,0.838,0.533,1.000,0.713,0.345,0.592,0.556,��,3.2,��
2022/06/20,09:00,0.578,0.840,0.535,1.001,0.711,0.345,0.593,0.559,���k��,4.4,��
2022/06/20,09:10,0.578,0.841,0.533,1.005,0.712,0.344,0.593,0.558,��,6.0,��
2022/06/20,09:20,0.579,0.841,0.534,1.006,0.712,0.344,0.593,0.558,���k��,5.1,��
2022/06/20,09:30,0.580,0.843,0.532,1.003,0.714,0.344,0.592,0.558,���k��,4.8,��
2022/06/20,09:40,0.580,0.843,0.533,1.006,0.713,0.343,0.593,0.559,���k��,3.2,��
2022/06/20,09:50,0.581,0.841,0.534,1.007,0.713,0.345,0.593,0.559,���k��,4.3,��
2022/06/20,10:00,0.579,0.844,0.533,1.005,0.714,0.344,0.593,0.560,���k��,4.0,��
2022/06/20,10:10,0.581,0.845,0.534,1.005,0.712,0.344,0.594,0.560,��,5.4,��
2022/06/20,10:20,0.583,0.841,0.533,1.006,0.712,0.344,0.595,0.559,���k��,5.8,��
2022/06/20,10:30,0.582,0.844,0.534,1.006,0.714,0.344,0.593,0.559,���k��,3.5,��
2022/06/20,10:40,0.581,0.844,0.535,1.006,0.714,0.345,0.595,0.560,�k��,3.4,��
2022/06/20,10:50,0.581,0.849,0.534,1.009,0.715,0.344,0.594,0.559,�k��,1.5,��
2022/06/20,11:00,0.581,0.848,0.537,1.006,0.716,0.344,0.594,0.559,���k��,4.1,��
2022/06/20,11:10,0.581,0.848,0.536,1.010,0.714,0.343,0.594,0.559,�k��,6.2,��
2022/06/20,11:20,0.580,0.849,0.536,1.007,0.715,0.343,0.594,0.559,���쐼,2.9,��
2022/06/20,11:30,0.581,0.848,0.535,1.007,0.715,0.345,0.595,0.560,��,3.0,��
2022/06/20,11:40,0.582,0.850,0.537,1.005,0.714,0.344,0.595,0.561,���k��,6.6,��
2022/06/20,11:50,0.584,0.851,0.536,1.008,0.715,0.345,0.594,0.561,���k��,5.8,��
2022/06/20,12:00,0.585,0.852,0.536,1.007,0.715,0.345,0.594,0.560,���k��,6.4,��
2022/06/20,12:10,0.583,0.853,0.536,1.008,0.715,0.345,0.594,0.559,��,5.2,��
2022/06/20,12:20,0.585,0.854,0.538,1.008,0.718,0.345,0.595,0.561,��,5.4,��
2022/06/20,12:30,0.585,0.853,0.538,1.009,0.719,0.345,0.596,0.560,��,5.6,��
2022/06/20,12:40,0.585,0.853,0.539,1.010,0.720,0.345,0.595,0.560,���쐼,5.6,��
2022/06/20,12:50,0.586,0.855,0.537,1.012,0.719,0.346,0.596,0.560,���쐼,7.0,��
2022/06/20,13:00,0.585,0.855,0.539,1.011,0.722,0.345,0.596,0.561,��,6.8,��
2022/06/20,13:10,0.587,0.852,0.538,1.012,0.719,0.346,0.596,0.562,��,7.9,��
2022/06/20,13:20,0.586,0.853,0.538,1.011,0.720,0.346,0.595,0.561,��,7.3,��
2022/06/20,13:30,0.584,0.854,0.538,1.013,0.720,0.347,0.595,0.561,���k��,8.8,��
2022/06/20,13:40,0.583,0.854,0.540,1.012,0.720,0.347,0.595,0.562,���k��,7.8,��
2022/06/20,13:50,0.585,0.854,0.537,1.011,0.723,0.346,0.596,0.562,��,5.9,��
2022/06/20,14:00,0.588,0.854,0.539,1.013,0.723,0.347,0.593,0.562,��,6.5,��
2022/06/20,14:10,0.589,0.855,0.539,1.010,0.723,0.348,0.594,0.561,���k��,5.0,��
2022/06/20,14:20,0.590,0.856,0.538,1.014,0.723,0.347,0.596,0.563,��,5.9,��
2022/06/20,14:30,0.590,0.855,0.539,1.015,0.725,0.348,0.596,0.562,��,5.5,��
2022/06/20,14:40,0.589,0.856,0.540,1.014,0.725,0.348,0.598,0.563,��,5.3,��
2022/06/20,14:50,0.589,0.855,0.541,1.014,0.726,0.347,0.598,0.565,��,6.7,��
2022/06/20,15:00,0.589,0.855,0.542,1.015,0.727,0.347,0.598,0.564,��,6.1,��
2022/06/20,15:10,0.589,0.853,0.542,1.015,0.725,0.347,0.597,0.564,���쐼,4.2,��
2022/06/20,15:20,0.590,0.857,0.542,1.019,0.724,0.347,0.598,0.562,��,3.3,��
2022/06/20,15:30,0.587,0.856,0.543,1.017,0.724,0.348,0.597,0.561,��,4.4,��
2022/06/20,15:40,0.588,0.857,0.543,1.018,0.727,0.347,0.598,0.564,��,4.8,��
2022/06/20,15:50,0.588,0.856,0.542,1.018,0.724,0.348,0.597,0.561,��,4.5,��
2022/06/20,16:00,0.588,0.857,0.542,1.022,0.726,0.347,0.598,0.561,��,4.5,��
2022/06/20,16:10,0.587,0.855,0.542,1.020,0.725,0.348,0.598,0.561,�k��,4.9,��
2022/06/20,16:20,0.586,0.858,0.543,1.020,0.724,0.348,0.596,0.561,�k,4.8,��
2022/06/20,16:30,0.585,0.857,0.540,1.019,0.726,0.347,0.595,0.561,�k�k��,3.8,��
2022/06/20,16:40,0.586,0.858,0.539,1.021,0.726,0.347,0.596,0.560,�k�k��,3.3,��
2022/06/20,16:50,0.585,0.857,0.542,1.017,0.724,0.347,0.597,0.561,�k��,3.1,��
2022/06/20,17:00,0.586,0.857,0.541,1.018,0.724,0.346,0.596,0.562,�k��,3.6,��
2022/06/20,17:10,0.584,0.855,0.542,1.020,0.724,0.346,0.596,0.562,�k��,3.5,��
2022/06/20,17:20,0.586,0.857,0.541,1.019,0.724,0.347,0.593,0.562,�k��,3.0,��
2022/06/20,17:30,0.586,0.857,0.539,1.020,0.724,0.346,0.595,0.562,�k��,2.3,��
2022/06/20,17:40,0.585,0.858,0.541,1.019,0.725,0.347,0.595,0.561,�k�k��,2.0,��
2022/06/20,17:50,0.583,0.857,0.540,1.020,0.726,0.346,0.594,0.562,�k,2.2,��
2022/06/20,18:00,0.585,0.856,0.539,1.019,0.726,0.345,0.595,0.562,�k�k��,2.3,��
2022/06/20,18:10,0.585,0.856,0.536,1.019,0.723,0.346,0.595,0.561,�k�k��,2.3,��
2022/06/20,18:20,0.585,0.858,0.539,1.021,0.725,0.346,0.594,0.561,�k�k��,2.2,��
2022/06/20,18:30,0.584,0.857,0.541,1.018,0.725,0.346,0.595,0.561,�k,2.5,��
2022/06/20,18:40,0.583,0.857,0.538,1.017,0.723,0.345,0.595,0.561,�k�k��,4.2,��
2022/06/20,18:50,0.583,0.858,0.540,1.019,0.725,0.346,0.593,0.560,�k�k��,4.4,��
2022/06/20,19:00,0.583,0.855,0.540,1.019,0.725,0.345,0.593,0.561,�k�k��,4.0,��
2022/06/20,19:10,0.583,0.858,0.540,1.018,0.726,0.345,0.595,0.560,�k,3.0,��
2022/06/20,19:20,0.583,0.854,0.538,1.018,0.726,0.345,0.594,0.560,�k��,3.9,��
2022/06/20,19:30,0.581,0.857,0.538,1.019,0.724,0.345,0.593,0.559,�k�k��,3.4,��
2022/06/20,19:40,0.583,0.854,0.539,1.016,0.723,0.344,0.593,0.560,�k��,5.2,��
2022/06/20,19:50,0.582,0.855,0.540,1.019,0.726,0.346,0.595,0.559,�k��,5.2,��
2022/06/20,20:00,0.582,0.856,0.539,1.020,0.726,0.346,0.595,0.561,�k�k��,4.6,��
2022/06/20,20:10,0.584,0.858,0.540,1.018,0.725,0.346,0.594,0.562,�k��,4.8,��
2022/06/20,20:20,0.584,0.858,0.538,1.020,0.728,0.345,0.594,0.561,�k��,3.7,��
2022/06/20,20:30,0.585,0.859,0.540,1.019,0.727,0.346,0.594,0.562,�k��,4.5,��
2022/06/20,20:40,0.585,0.858,0.539,1.020,0.728,0.346,0.594,0.562,�k��,4.1,��
2022/06/20,20:50,0.584,0.859,0.542,1.021,0.727,0.346,0.596,0.562,�k��,3.0,��
2022/06/20,21:00,0.583,0.859,0.542,1.023,0.726,0.346,0.595,0.561,�k��,4.1,��
2022/06/20,21:10,0.585,0.858,0.540,1.022,0.726,0.347,0.595,0.562,�k�k��,4.8,��
2022/06/20,21:20,0.583,0.857,0.540,1.022,0.726,0.347,0.595,0.563,�k�k��,5.7,��
2022/06/20,21:30,0.584,0.858,0.541,1.023,0.727,0.346,0.596,0.563,�k�k��,5.6,��
2022/06/20,21:40,0.585,0.858,0.541,1.022,0.728,0.346,0.596,0.563,�k�k��,5.3,��
2022/06/20,21:50,0.584,0.859,0.541,1.022,0.729,0.347,0.594,0.563,�k�k��,5.0,��
2022/06/20,22:00,0.583,0.860,0.541,1.021,0.727,0.348,0.595,0.564,�k�k��,4.9,��
2022/06/20,22:10,0.585,0.858,0.541,1.020,0.727,0.347,0.596,0.561,�k�k��,4.3,��
2022/06/20,22:20,0.585,0.857,0.541,1.023,0.728,0.347,0.596,0.562,�k�k��,4.4,��
2022/06/20,22:30,0.584,0.858,0.542,1.023,0.727,0.346,0.595,0.562,�k�k��,4.6,��
2022/06/20,22:40,0.585,0.858,0.541,1.024,0.728,0.347,0.596,0.563,�k,4.0,��
2022/06/20,22:50,0.584,0.858,0.543,1.022,0.726,0.346,0.596,0.563,�k�k��,4.3,��
2022/06/20,23:00,0.585,0.857,0.540,1.022,0.727,0.347,0.596,0.562,�k�k��,3.9,��
2022/06/20,23:10,0.586,0.858,0.541,1.019,0.727,0.345,0.596,0.564,�k�k��,3.8,��
2022/06/20,23:20,0.586,0.858,0.542,1.021,0.727,0.345,0.596,0.563,�k,3.7,��
2022/06/20,23:30,0.584,0.857,0.542,1.021,0.726,0.347,0.594,0.562,�k,3.6,��
2022/06/20,23:40,0.586,0.859,0.542,1.022,0.727,0.347,0.596,0.563,�k�k��,4.1,��
2022/06/20,23:50,0.584,0.857,0.542,1.021,0.728,0.345,0.595,0.562,�k,3.5,��
